{"data":{"norad_id":49338,"intl_designator":"2021-097A","name":"JILIN-1 GAOFEN 2F","alt_names":[],"object_type":"PAYLOAD","status":"ACTIVE","operator":null,"country":"PRC","launch_date":"2021-10-27","launch_site_code":"JSC","launch_vehicle":null,"mission":null,"orbit_class":"UNKNOWN","rcs_meters":null,"size_class":null,"mass_kg":null,"dimensions":null,"purposes":[],"wikipedia_slug":null,"has_3d_model":false,"image_url":null,"decayed_at":null,"tle_current":{"epoch":"2026-09-20T04:25:00.674112Z","epoch_age_seconds":31478,"freshness":"FRESH","line1":"1 49338U 21097A   26263.18403558  .00002302  00000+0  15206-3 0  9992","line2":"2 49338  97.6808  29.2483 0017078 262.7814  97.1473 15.08323669270630","mean_motion":15.08323669,"eccentricity":0.0017078,"inclination_deg":97.6808,"raan_deg":29.2483,"arg_perigee_deg":262.7814,"mean_anomaly_deg":97.1473,"bstar":0.00015206,"rev_number":27063,"period_min":95.470224965355,"perigee_km":529.50500429019,"apogee_km":553.13910864346,"semimajor_km":6919.4590564668,"source":"CELESTRAK","updated_at":"2026-09-20T09:00:15.387452Z"}}}